Year,Month,Day,Hour,Minute,Value (Times are PST for temperature in C)
2007,08,10,09,49,16.80
2007,08,10,09,50,16.80
2007,08,10,09,51,16.90
2007,08,10,09,52,16.90
2007,08,10,09,53,16.90
2007,08,10,09,54,16.90
2007,08,10,09,55,16.90
2007,08,10,09,56,16.90
2007,08,10,09,57,17.00
2007,08,10,09,58,17.00
2007,08,10,09,59,17.10
2007,08,10,10,00,17.10
2007,08,10,10,01,17.10
2007,08,10,10,02,17.10
2007,08,10,10,03,17.10
2007,08,10,10,04,17.10
2007,08,10,10,05,17.10
2007,08,10,10,06,17.10
2007,08,10,10,07,17.10
2007,08,10,10,53,18.20
2007,08,10,10,54,18.20
2007,08,10,10,55,18.10
2007,08,10,10,56,18.00
2007,08,10,10,57,18.00
2007,08,10,10,58,17.90
2007,08,10,10,59,17.90
2007,08,10,11,00,17.90
2007,08,10,11,01,17.90
2007,08,10,11,02,17.90
2007,08,10,11,03,17.90
2007,08,10,11,04,17.80
2007,08,10,11,05,17.80
2007,08,10,11,06,17.80
2007,08,10,11,07,17.80
2007,08,10,11,08,17.80
2007,08,10,11,09,17.80
2007,08,10,11,10,17.90
2007,08,10,11,11,18.00
2007,08,10,11,12,18.20
2007,08,10,11,13,18.30
2007,08,10,11,14,18.40
2007,08,10,11,15,18.30
2007,08,10,11,16,18.30
2007,08,10,11,17,18.30
2007,08,10,11,18,18.40
2007,08,10,11,19,18.40
2007,08,10,11,20,18.50
2007,08,10,11,21,18.60
2007,08,10,11,22,18.50
2007,08,10,11,23,18.40
2007,08,10,11,24,18.40
2007,08,10,11,25,18.40
2007,08,10,11,26,18.30
2007,08,10,11,27,18.40
2007,08,10,11,28,18.30
2007,08,10,11,29,18.30
2007,08,10,11,30,18.30
2007,08,10,11,31,18.30
2007,08,10,11,32,18.30
2007,08,10,11,33,18.40
2007,08,10,11,34,18.40
2007,08,10,11,35,18.40
2007,08,10,11,36,18.30
2007,08,10,11,37,18.20
2007,08,10,11,38,18.30
2007,08,10,11,39,18.30
2007,08,10,11,40,18.30
2007,08,10,11,41,18.30
2007,08,10,11,42,18.20
2007,08,10,11,43,18.10
2007,08,10,11,44,18.00
2007,08,10,11,45,17.90
2007,08,10,11,46,17.90
2007,08,10,11,47,17.90
2007,08,10,11,48,17.90
2007,08,10,11,49,17.90
2007,08,10,11,50,17.90
2007,08,10,11,51,18.00
2007,08,10,11,52,18.10
2007,08,10,11,53,18.20
2007,08,10,11,54,18.20
2007,08,10,11,55,18.20
2007,08,10,11,56,18.20
2007,08,10,11,57,18.20
2007,08,10,11,58,18.20
2007,08,10,11,59,18.20
2007,08,10,12,00,18.30
2007,08,10,12,01,18.40
2007,08,10,12,02,18.50
2007,08,10,12,03,18.40
2007,08,10,12,04,18.40
2007,08,10,12,05,18.40
2007,08,10,12,06,18.40
2007,08,10,12,07,18.40
2007,08,10,12,08,18.30
2007,08,10,12,09,18.40
2007,08,10,12,10,18.60
2007,08,10,12,11,18.70
2007,08,10,12,12,18.70
2007,08,10,12,13,18.70
2007,08,10,12,14,18.70
2007,08,10,12,15,18.70
2007,08,10,12,16,18.80
2007,08,10,12,17,18.80
2007,08,10,12,18,18.90
2007,08,10,12,19,19.00
2007,08,10,12,20,19.00
2007,08,10,12,21,18.90
2007,08,10,12,22,18.80
2007,08,10,12,23,18.70
2007,08,10,12,24,18.70
2007,08,10,12,25,18.60
2007,08,10,12,26,18.60
2007,08,10,12,27,18.60
2007,08,10,12,28,18.60
2007,08,10,12,29,18.60
2007,08,10,12,30,18.70
2007,08,10,12,31,18.80
2007,08,10,12,32,18.70
2007,08,10,12,33,18.70
2007,08,10,12,34,18.70
2007,08,10,12,35,18.60
2007,08,10,12,36,18.50
2007,08,10,12,37,18.50
2007,08,10,12,38,18.60
2007,08,10,12,39,18.70
2007,08,10,12,40,18.80
2007,08,10,12,41,18.80
2007,08,10,12,42,18.80
2007,08,10,12,43,18.70
2007,08,10,12,44,18.70
2007,08,10,12,45,18.70
2007,08,10,12,46,18.70
2007,08,10,12,47,18.70
2007,08,10,12,48,18.90
2007,08,10,12,49,19.00
2007,08,10,12,50,19.10
2007,08,10,12,51,19.10
2007,08,10,12,52,19.10
2007,08,10,12,53,19.10
2007,08,10,12,54,19.10
2007,08,10,12,55,19.20
2007,08,10,12,56,19.30
2007,08,10,12,57,19.40
2007,08,10,12,58,19.50
2007,08,10,12,59,19.60
2007,08,10,13,00,19.50
2007,08,10,13,01,19.40
2007,08,10,13,02,19.20
2007,08,10,13,03,19.10
2007,08,10,13,04,18.90
2007,08,10,13,05,18.80
2007,08,10,13,06,18.70
2007,08,10,13,07,18.70
2007,08,10,13,08,18.70
2007,08,10,13,09,18.80
2007,08,10,13,10,18.80
2007,08,10,13,11,18.80
2007,08,10,13,12,18.70
2007,08,10,13,13,18.70
2007,08,10,13,14,18.80
2007,08,10,13,15,18.90
2007,08,10,13,16,18.90
2007,08,10,13,17,19.00
2007,08,10,13,18,19.00
2007,08,10,13,19,19.20
2007,08,10,13,20,19.30
2007,08,10,13,21,19.30
2007,08,10,13,22,19.30
2007,08,10,13,23,19.30
2007,08,10,13,24,19.30
2007,08,10,13,25,19.30
2007,08,10,13,26,19.20
2007,08,10,13,27,19.10
2007,08,10,13,28,19.10
2007,08,10,13,29,19.20
2007,08,10,13,30,19.40
2007,08,10,13,31,19.60
2007,08,10,13,32,19.60
2007,08,10,13,33,19.50
2007,08,10,13,34,19.30
2007,08,10,13,35,19.20
2007,08,10,13,36,19.20
2007,08,10,13,37,19.20
2007,08,10,13,38,19.20
2007,08,10,13,39,19.20
2007,08,10,13,40,19.20
2007,08,10,13,41,19.30
2007,08,10,13,42,19.30
2007,08,10,13,43,19.30
2007,08,10,13,44,19.20
2007,08,10,13,45,19.20
2007,08,10,13,46,19.20
2007,08,10,13,47,19.30
2007,08,10,13,48,19.50
2007,08,10,13,49,19.60
2007,08,10,13,50,19.60
2007,08,10,13,51,19.60
2007,08,10,13,52,19.50
2007,08,10,13,53,19.40
2007,08,10,13,54,19.30
2007,08,10,13,55,19.20
2007,08,10,13,56,19.30
2007,08,10,13,57,19.30
2007,08,10,13,58,19.30
2007,08,10,13,59,19.40
2007,08,10,14,00,19.30
2007,08,10,14,01,19.30
2007,08,10,14,02,19.40
2007,08,10,14,03,19.40
2007,08,10,14,04,19.40
2007,08,10,14,05,19.50
2007,08,10,14,06,19.40
2007,08,10,14,07,19.30
2007,08,10,14,08,19.30
2007,08,10,14,09,19.20
2007,08,10,14,10,19.20
2007,08,10,14,11,19.20
2007,08,10,14,12,19.10
2007,08,10,14,13,19.10
2007,08,10,14,14,19.10
2007,08,10,14,15,19.00
2007,08,10,14,16,18.90
2007,08,10,14,17,18.90
2007,08,10,14,18,19.00
2007,08,10,14,19,19.10
2007,08,10,14,20,19.10
2007,08,10,14,21,19.10
2007,08,10,14,22,19.10
2007,08,10,14,23,19.10
2007,08,10,14,24,19.00
2007,08,10,14,25,18.90
2007,08,10,14,26,18.90
2007,08,10,14,27,19.10
2007,08,10,14,28,19.10
2007,08,10,14,29,19.10
2007,08,10,14,30,19.10
2007,08,10,14,31,19.20
2007,08,10,14,32,19.30
2007,08,10,14,33,19.40
2007,08,10,14,34,19.60
2007,08,10,14,35,19.70
2007,08,10,14,36,19.80
2007,08,10,14,37,19.80
2007,08,10,14,38,19.70
2007,08,10,14,39,19.60
2007,08,10,14,40,19.60
2007,08,10,14,41,19.60
2007,08,10,14,42,19.60
2007,08,10,14,43,19.60
2007,08,10,14,44,19.50
2007,08,10,14,45,19.50
2007,08,10,14,46,19.40
2007,08,10,14,47,19.40
2007,08,10,14,48,19.40
2007,08,10,14,49,19.60
2007,08,10,14,50,19.60
2007,08,10,14,51,19.50
2007,08,10,14,52,19.40
2007,08,10,14,53,19.30
2007,08,10,14,54,19.20
2007,08,10,14,55,19.20
2007,08,10,14,56,19.20
2007,08,10,14,57,19.20
2007,08,10,14,58,19.20
2007,08,10,14,59,19.20
2007,08,10,15,00,19.20
2007,08,10,15,01,19.20
2007,08,10,15,02,19.10
2007,08,10,15,03,19.10
2007,08,10,15,04,19.10
2007,08,10,15,05,19.20
2007,08,10,15,06,19.40
2007,08,10,15,07,19.50
2007,08,10,15,08,19.50
2007,08,10,15,09,19.50
2007,08,10,15,10,19.40
2007,08,10,15,11,19.40
2007,08,10,15,12,19.40
2007,08,10,15,13,19.50
2007,08,10,15,14,19.50
2007,08,10,15,15,19.40
2007,08,10,15,16,19.40
2007,08,10,15,17,19.40
2007,08,10,15,18,19.50
2007,08,10,15,19,19.60
2007,08,10,15,20,19.70
2007,08,10,15,21,19.80
2007,08,10,15,22,19.70
2007,08,10,15,23,19.60
2007,08,10,15,24,19.40
2007,08,10,15,25,19.40
2007,08,10,15,26,19.60
2007,08,10,15,27,19.70
2007,08,10,15,28,19.70
2007,08,10,15,29,19.70
2007,08,10,15,30,19.70
2007,08,10,15,31,19.60
2007,08,10,15,32,19.40
2007,08,10,15,33,19.40
2007,08,10,15,34,19.40
2007,08,10,15,35,19.40
2007,08,10,15,36,19.30
2007,08,10,15,37,19.30
2007,08,10,15,38,19.20
2007,08,10,15,39,19.20
2007,08,10,15,40,19.20
2007,08,10,15,41,19.30
2007,08,10,15,42,19.50
2007,08,10,15,43,19.70
2007,08,10,15,44,19.80
2007,08,10,15,45,19.80
2007,08,10,15,46,19.80
2007,08,10,15,47,19.80
2007,08,10,15,48,19.70
2007,08,10,15,49,19.70
2007,08,10,15,50,19.70
2007,08,10,15,51,19.70
2007,08,10,15,52,19.60
2007,08,10,15,53,19.50
2007,08,10,15,54,19.40
2007,08,10,15,55,19.40
2007,08,10,15,56,19.40
2007,08,10,15,57,19.40
2007,08,10,15,58,19.50
2007,08,10,15,59,19.60
2007,08,10,16,00,19.60
2007,08,10,16,01,19.50
2007,08,10,16,02,19.40
2007,08,10,16,03,19.40
2007,08,10,16,04,19.30
2007,08,10,16,05,19.30
2007,08,10,16,06,19.20
2007,08,10,16,07,19.20
2007,08,10,16,08,19.20
2007,08,10,16,09,19.20
2007,08,10,16,10,19.20
2007,08,10,16,11,19.20
2007,08,10,16,12,19.10
2007,08,10,16,13,19.10
2007,08,10,16,14,19.20
2007,08,10,16,15,19.20
2007,08,10,16,16,19.30
2007,08,10,16,17,19.40
2007,08,10,16,18,19.40
2007,08,10,16,19,19.50
2007,08,10,16,20,19.60
2007,08,10,16,21,19.70
2007,08,10,16,22,19.70
2007,08,10,16,23,19.70
2007,08,10,16,24,19.70
2007,08,10,16,25,19.80
2007,08,10,16,26,19.90
2007,08,10,16,27,20.00
2007,08,10,16,28,20.00
2007,08,10,16,29,19.90
2007,08,10,16,30,19.80
2007,08,10,16,31,19.60
2007,08,10,16,32,19.60
2007,08,10,16,33,19.40
2007,08,10,16,34,19.40
2007,08,10,16,35,19.40
2007,08,10,16,36,19.30
2007,08,10,16,37,19.30
2007,08,10,16,38,19.40
2007,08,10,16,39,19.30
2007,08,10,16,40,19.30
2007,08,10,16,41,19.30
2007,08,10,16,42,19.40
2007,08,10,16,43,19.40
2007,08,10,16,44,19.50
2007,08,10,16,45,19.50
2007,08,10,16,46,19.50
2007,08,10,16,47,19.50
2007,08,10,16,48,19.50
2007,08,10,16,49,19.50
2007,08,10,16,50,19.50
2007,08,10,16,51,19.40
2007,08,10,16,52,19.40
2007,08,10,16,53,19.50
2007,08,10,16,54,19.60
2007,08,10,16,55,19.60
2007,08,10,16,56,19.50
2007,08,10,16,57,19.40
2007,08,10,16,58,19.40
2007,08,10,16,59,19.50
2007,08,10,17,00,19.50
2007,08,10,17,01,19.60
2007,08,10,17,02,19.50
2007,08,10,17,03,19.40
2007,08,10,17,04,19.30
2007,08,10,17,05,19.30
2007,08,10,17,06,19.30
2007,08,10,17,07,19.30
2007,08,10,17,08,19.30
2007,08,10,17,09,19.30
2007,08,10,17,10,19.40
2007,08,10,17,11,19.60
2007,08,10,17,12,19.80
2007,08,10,17,13,19.80
2007,08,10,17,14,19.80
2007,08,10,17,15,19.70
2007,08,10,17,16,19.60
2007,08,10,17,17,19.50
2007,08,10,17,18,19.50
2007,08,10,17,19,19.40
2007,08,10,17,20,19.30
2007,08,10,17,21,19.30
2007,08,10,17,22,19.50
2007,08,10,17,23,19.60
2007,08,10,17,24,19.50
2007,08,10,17,25,19.40
2007,08,10,17,26,19.40
2007,08,10,17,27,19.40
2007,08,10,17,28,19.30
2007,08,10,17,29,19.20
2007,08,10,17,30,19.20
2007,08,10,17,31,19.30
2007,08,10,17,32,19.40
2007,08,10,17,33,19.50
2007,08,10,17,34,19.60
2007,08,10,17,35,19.60
2007,08,10,17,36,19.70
2007,08,10,17,37,19.60
2007,08,10,17,38,19.60
2007,08,10,17,39,19.40
2007,08,10,17,40,19.30
2007,08,10,17,41,19.30
2007,08,10,17,42,19.30
2007,08,10,17,43,19.30
2007,08,10,17,44,19.30
2007,08,10,17,45,19.30
2007,08,10,17,46,19.30
2007,08,10,17,47,19.30
2007,08,10,17,48,19.30
2007,08,10,17,49,19.40
2007,08,10,17,50,19.50
2007,08,10,17,51,19.50
2007,08,10,17,52,19.50
2007,08,10,17,53,19.50
2007,08,10,17,54,19.40
2007,08,10,17,55,19.40
2007,08,10,17,56,19.40
2007,08,10,17,57,19.40
2007,08,10,17,58,19.30
2007,08,10,17,59,19.30
2007,08,10,18,00,19.30
2007,08,10,18,01,19.30
2007,08,10,18,02,19.40
2007,08,10,18,03,19.40
2007,08,10,18,04,19.50
2007,08,10,18,05,19.60
2007,08,10,18,06,19.60
2007,08,10,18,07,19.60
2007,08,10,18,08,19.60
2007,08,10,18,09,19.60
2007,08,10,18,10,19.50
2007,08,10,18,11,19.50
2007,08,10,18,12,19.60
2007,08,10,18,13,19.60
2007,08,10,18,14,19.60
2007,08,10,18,15,19.70
2007,08,10,18,16,19.70
2007,08,10,18,17,19.70
2007,08,10,18,18,19.70
2007,08,10,18,19,19.80
2007,08,10,18,20,19.70
2007,08,10,18,21,19.70
2007,08,10,18,22,19.80
2007,08,10,18,23,19.80
2007,08,10,18,24,19.80
2007,08,10,18,25,19.80
2007,08,10,18,26,19.80
2007,08,10,18,27,19.80
2007,08,10,18,28,19.80
2007,08,10,18,29,19.80
2007,08,10,18,30,19.80
2007,08,10,18,31,19.80
2007,08,10,18,32,19.70
2007,08,10,18,33,19.60
2007,08,10,18,34,19.50
2007,08,10,18,35,19.50
2007,08,10,18,36,19.50
2007,08,10,18,37,19.50
2007,08,10,18,38,19.50
2007,08,10,18,39,19.50
2007,08,10,18,40,19.50
2007,08,10,18,41,19.60
2007,08,10,18,42,19.60
2007,08,10,18,43,19.60
2007,08,10,18,44,19.60
2007,08,10,18,45,19.60
2007,08,10,18,46,19.60
2007,08,10,18,47,19.60
2007,08,10,18,48,19.60
2007,08,10,18,49,19.60
2007,08,10,18,50,19.70
2007,08,10,18,51,19.60
2007,08,10,18,52,19.60
2007,08,10,18,53,19.50
2007,08,10,18,54,19.50
2007,08,10,18,55,19.50
2007,08,10,18,56,19.40
2007,08,10,18,57,19.40
2007,08,10,18,58,19.40
2007,08,10,18,59,19.50
2007,08,10,19,00,19.50
2007,08,10,19,01,19.60
2007,08,10,19,02,19.60
2007,08,10,19,03,19.60
2007,08,10,19,04,19.60
2007,08,10,19,05,19.60
2007,08,10,19,06,19.50
2007,08,10,19,07,19.50
2007,08,10,19,08,19.40
2007,08,10,19,09,19.40
2007,08,10,19,10,19.30
2007,08,10,19,11,19.40
2007,08,10,19,12,19.40
2007,08,10,19,13,19.50
2007,08,10,19,14,19.60
2007,08,10,19,15,19.60
2007,08,10,19,16,19.50
2007,08,10,19,17,19.40
2007,08,10,19,18,19.30
2007,08,10,19,19,19.30
2007,08,10,19,20,19.20
2007,08,10,19,21,19.20
2007,08,10,19,22,19.10
2007,08,10,19,23,19.10
2007,08,10,19,24,19.00
2007,08,10,19,25,18.90
2007,08,10,19,26,18.90
2007,08,10,19,27,18.90
2007,08,10,19,28,18.90
2007,08,10,19,29,18.90
2007,08,10,19,30,18.90
2007,08,10,19,31,18.90
2007,08,10,19,32,18.90
2007,08,10,19,33,18.80
2007,08,10,19,34,18.80
2007,08,10,19,35,18.80
2007,08,10,19,36,18.80
2007,08,10,19,37,18.80
2007,08,10,19,38,18.80
2007,08,10,19,39,18.80
2007,08,10,19,40,18.80
2007,08,10,19,41,18.70
2007,08,10,19,42,18.70
2007,08,10,19,43,18.70
2007,08,10,19,44,18.70
2007,08,10,19,45,18.70
2007,08,10,19,46,18.70
2007,08,10,19,47,18.60
2007,08,10,19,48,18.60
2007,08,10,19,49,18.70
2007,08,10,19,50,18.70
2007,08,10,19,51,18.70
2007,08,10,19,52,18.70
2007,08,10,19,53,18.70
2007,08,10,19,54,18.60
2007,08,10,19,55,18.70
2007,08,10,19,56,18.70
2007,08,10,19,57,18.70
2007,08,10,19,58,18.70
2007,08,10,19,59,18.70
2007,08,10,20,00,18.70
2007,08,10,20,01,18.70
2007,08,10,20,02,18.70
2007,08,10,20,03,18.70
2007,08,10,20,04,18.70
2007,08,10,20,05,18.70
2007,08,10,20,06,18.70
2007,08,10,20,07,18.70
2007,08,10,20,08,18.70
2007,08,10,20,09,18.70
2007,08,10,20,10,18.60
2007,08,10,20,11,18.60
2007,08,10,20,12,18.60
2007,08,10,20,13,18.60
2007,08,10,20,14,18.60
2007,08,10,20,15,18.50
2007,08,10,20,16,18.50
2007,08,10,20,17,18.50
2007,08,10,20,18,18.40
2007,08,10,20,19,18.40
2007,08,10,20,20,18.40
2007,08,10,20,21,18.40
2007,08,10,20,22,18.40
2007,08,10,20,23,18.40
2007,08,10,20,24,18.30
2007,08,10,20,25,18.30
2007,08,10,20,26,18.30
2007,08,10,20,27,18.30
2007,08,10,20,28,18.20
2007,08,10,20,29,18.20
2007,08,10,20,30,18.20
2007,08,10,20,31,18.20
2007,08,10,20,32,18.20
2007,08,10,20,33,18.10
2007,08,10,20,34,18.10
2007,08,10,20,35,18.00
2007,08,10,20,36,18.00
2007,08,10,20,37,17.90
2007,08,10,20,38,17.90
2007,08,10,20,39,17.90
2007,08,10,20,40,17.80
2007,08,10,20,41,17.80
2007,08,10,20,42,17.70
2007,08,10,20,43,17.70
2007,08,10,20,44,17.70
2007,08,10,20,45,17.60
2007,08,10,20,46,17.60
2007,08,10,20,47,17.60
2007,08,10,20,48,17.50
2007,08,10,20,49,17.50
2007,08,10,20,50,17.50
2007,08,10,20,51,17.40
2007,08,10,20,52,17.40
2007,08,10,20,53,17.40
2007,08,10,20,54,17.40
2007,08,10,20,55,17.40
2007,08,10,20,56,17.40
2007,08,10,20,57,17.30
2007,08,10,20,58,17.30
2007,08,10,20,59,17.30
2007,08,10,21,00,17.30
2007,08,10,21,01,17.20
2007,08,10,21,02,17.20
2007,08,10,21,03,17.20
2007,08,10,21,04,17.20
2007,08,10,21,05,17.10
2007,08,10,21,06,17.10
2007,08,10,21,07,17.10
2007,08,10,21,08,17.10
2007,08,10,21,09,17.00
2007,08,10,21,10,17.00
2007,08,10,21,11,17.00
2007,08,10,21,12,17.00
2007,08,10,21,13,16.90
2007,08,10,21,14,16.90
2007,08,10,21,15,16.90
2007,08,10,21,16,16.90
2007,08,10,21,17,16.90
2007,08,10,21,18,16.90
2007,08,10,21,19,16.90
2007,08,10,21,20,16.80
2007,08,10,21,21,16.80
2007,08,10,21,22,16.80
2007,08,10,21,23,16.80
2007,08,10,21,24,16.80
2007,08,10,21,25,16.80
2007,08,10,21,26,16.80
2007,08,10,21,27,16.80
2007,08,10,21,28,16.80
2007,08,10,21,29,16.80
2007,08,10,21,30,16.70
2007,08,10,21,31,16.70
2007,08,10,21,32,16.70
2007,08,10,21,33,16.70
2007,08,10,21,34,16.60
2007,08,10,21,35,16.60
2007,08,10,21,36,16.60
2007,08,10,21,37,16.60
2007,08,10,21,38,16.60
2007,08,10,21,39,16.60
2007,08,10,21,40,16.50
2007,08,10,21,41,16.50
2007,08,10,21,42,16.50
2007,08,10,21,43,16.40
2007,08,10,21,44,16.40
2007,08,10,21,45,16.40
2007,08,10,21,46,16.30
2007,08,10,21,47,16.30
2007,08,10,21,48,16.30
2007,08,10,21,49,16.20
2007,08,10,21,50,16.20
2007,08,10,21,51,16.20
2007,08,10,21,52,16.10
2007,08,10,21,53,16.10
2007,08,10,21,54,16.00
2007,08,10,21,55,16.00
2007,08,10,21,56,15.90
2007,08,10,21,57,15.90
2007,08,10,21,58,15.90
2007,08,10,21,59,15.80
2007,08,10,22,00,15.80
2007,08,10,22,01,15.80
2007,08,10,22,02,15.80
2007,08,10,22,03,15.70
2007,08,10,22,04,15.70
2007,08,10,22,05,15.70
2007,08,10,22,06,15.70
2007,08,10,22,07,15.70
2007,08,10,22,08,15.60
2007,08,10,22,09,15.60
2007,08,10,22,10,15.60
2007,08,10,22,11,15.60
2007,08,10,22,12,15.60
2007,08,10,22,13,15.60
2007,08,10,22,14,15.60
2007,08,10,22,15,15.50
2007,08,10,22,16,15.50
2007,08,10,22,17,15.40
2007,08,10,22,18,15.40
2007,08,10,22,19,15.40
2007,08,10,22,20,15.30
2007,08,10,22,21,15.30
2007,08,10,22,22,15.30
2007,08,10,22,23,15.20
2007,08,10,22,24,15.20
2007,08,10,22,25,15.10
2007,08,10,22,26,15.10
2007,08,10,22,27,15.00
2007,08,10,22,28,15.00
2007,08,10,22,29,15.00
2007,08,10,22,30,15.00
2007,08,10,22,31,15.00
2007,08,10,22,32,15.00
2007,08,10,22,33,15.00
2007,08,10,22,34,15.00
2007,08,10,22,35,15.00
2007,08,10,22,36,15.00
2007,08,10,22,37,15.00
2007,08,10,22,38,15.00
2007,08,10,22,39,15.00
2007,08,10,22,40,15.00
2007,08,10,22,41,14.90
2007,08,10,22,42,14.90
2007,08,10,22,43,14.90
2007,08,10,22,44,14.90
2007,08,10,22,45,14.80
2007,08,10,22,46,14.80
2007,08,10,22,47,14.80
2007,08,10,22,48,14.80
2007,08,10,22,49,14.80
2007,08,10,22,50,14.80
2007,08,10,22,51,14.70
2007,08,10,22,52,14.70
2007,08,10,22,53,14.70
2007,08,10,22,54,14.70
2007,08,10,22,55,14.70
2007,08,10,22,56,14.70
2007,08,10,22,57,14.70
2007,08,10,22,58,14.70
2007,08,10,22,59,14.70
2007,08,10,23,00,14.70
2007,08,10,23,01,14.70
2007,08,10,23,02,14.70
2007,08,10,23,03,14.70
2007,08,10,23,04,14.70
2007,08,10,23,05,14.70
2007,08,10,23,06,14.70
2007,08,10,23,07,14.70
2007,08,10,23,08,14.70
2007,08,10,23,09,14.70
2007,08,10,23,10,14.70
2007,08,10,23,11,14.70
2007,08,10,23,12,14.70
2007,08,10,23,13,14.70
2007,08,10,23,14,14.70
2007,08,10,23,15,14.70
2007,08,10,23,16,14.70
2007,08,10,23,17,14.70
2007,08,10,23,18,14.60
2007,08,10,23,19,14.60
2007,08,10,23,20,14.60
2007,08,10,23,21,14.60
2007,08,10,23,22,14.60
2007,08,10,23,23,14.60
2007,08,10,23,24,14.50
2007,08,10,23,25,14.50
2007,08,10,23,26,14.50
2007,08,10,23,27,14.40
2007,08,10,23,28,14.40
2007,08,10,23,29,14.40
2007,08,10,23,30,14.40
2007,08,10,23,31,14.40
2007,08,10,23,32,14.30
2007,08,10,23,33,14.30
2007,08,10,23,34,14.20
2007,08,10,23,35,14.20
2007,08,10,23,36,14.20
2007,08,10,23,37,14.20
2007,08,10,23,38,14.20
2007,08,10,23,39,14.10
2007,08,10,23,40,14.10
2007,08,10,23,41,14.10
2007,08,10,23,42,14.10
2007,08,10,23,43,14.10
2007,08,10,23,44,14.00
2007,08,10,23,45,14.00
2007,08,10,23,46,14.00
2007,08,10,23,47,13.90
2007,08,10,23,48,13.90
2007,08,10,23,49,13.90
2007,08,10,23,50,13.90
2007,08,10,23,51,13.80
2007,08,10,23,52,13.80
2007,08,10,23,53,13.70
2007,08,10,23,54,13.70
2007,08,10,23,55,13.70
2007,08,10,23,56,13.60
2007,08,10,23,57,13.60
2007,08,10,23,58,13.60
2007,08,10,23,59,13.60
